Location: Greenwich
(51.4790°N, 0.0090°E)
Time: 10:08:19
(UTC+01:00)

N. Korean satellite - Pass Details

Date: 26 September 2021
Orbit: 450 x 495 km, 97.3° (Epoch: 15 October)

Event Time Altitude Azimuth Distance (km) Brightness Sun altitude
Rises 05:35:13 0° 24° (NNE) 2,527 10.8 -12.8°
Reaches altitude 10° 05:37:36 10° 40° (NE) 1,653 10.1 -12.4°
Maximum altitude 05:40:27 22° 94° (E) 1,080 9.3 -12.0°
Drops below altitude 10° 05:43:20 10° 147° (SSE) 1,662 9.5 -11.5°
Sets 05:45:43 0° 163° (SSE) 2,545 10.3 -11.2°
